Regional Weather Roundup
Issued by NWS

Home | Current Version | Previous Version | Graphics & Text | Print | Product List | Glossary On
Versions: 1 2 3 4 5 6 7 8 9 10 11 12 13 14 15 16 17 18 19 20 21 22 23 24 25 26 27 28 29 30 31 32 33 34 35 36 37 38 39 40 41 42 43 44 45 46 47 48 49 50
000
ASUS43 KLOT 280508
RWRIL

ILLINOIS REGIONAL WEATHER ROUNDUP
NATIONAL WEATHER SERVICE CHICAGO/ROMEOVILLE IL
1200 AM CDT SAT MAY 28 2016

NOTE: "FAIR" INDICATES FEW OR NO CLOUDS BELOW 12,000 FEET WITH NO
SIGNIFICANT WEATHER AND/OR OBSTRUCTIONS TO VISIBILITY.

* THESE STATIONS ARE NOT UNDER NWS QUALITY CONTROL. THEY ALSO MAY NOT
  REPORT WEATHER SUCH AS PRECIPITATION OR FOG.

ILZ001-002-007-009-015-016-024-280600-
NORTHWEST ILLINOIS

CITY           SKY/WX    TMP DP  RH WIND       PRES   REMARKS
MOLINE         LGT RAIN  73  66  78 S17G28    29.76S
STERLING*      LGT RAIN  71  68  90 SE7       29.82R
SAVANNA*       CLOUDY    72  67  85 SE8       29.78S
$$

ILZ003-004-008-010-011-017-018-280600-
NORTH CENTRAL ILLINOIS

CITY           SKY/WX    TMP DP  RH WIND       PRES   REMARKS
ROCKFORD       LGT RAIN  71  65  81 S17       29.85R
FREEPORT*      CLOUDY    70  66  87 SE9       29.82S
ROCHELLE*      CLOUDY    68  66  92 S16       29.85R
DE KALB*       CLOUDY    68  66  94 S12       29.86S
$$

ILZ005-006-012>014-019>023-280600-
NORTHEAST ILLINOIS

CITY           SKY/WX    TMP DP  RH WIND       PRES   REMARKS
CHICAGO-OHARE  CLOUDY    68  65  90 S14       29.87F
CHICAGO-MIDWAY CLOUDY    71  65  81 S10       29.88S
AURORA         CLOUDY    70  66  87 S12       29.87R
LANSING*       LGT RAIN  69  64  83 S10       29.90F
JOLIET*        CLOUDY    70  66  87 S9        29.88S
WAUKEGAN       CLOUDY    69  66  90 S10       29.86S
DUPAGE AIRPORT CLOUDY    69  64  84 S12       29.86F
KANKAKEE*      CLOUDY    68  64  87 S8        29.90F
WHEELING       CLOUDY    69  66  90 S13       29.88S
MORRIS*        CLOUDY    70  65  86 S10G17    29.86S
ROMEOVILLE*    CLOUDY    68  64  85 S14       29.88S
NORTHERLY ISL    N/A     70  65  84 S7          N/A
NORTHERLY ISL    N/A     70  65  84 S7          N/A
$$

LMZ740>746-280600-
SOUTHERN LAKE MICHIGAN

STATION/POSITION SKY/WX   TEMP    WIND        PRES    VSBY  WAVE
                          AIR SEA DIR/SP/G                  HT/PER
                          (F)     (DEG/KT/KT) (MB)    (MI)  (FT/S)
SOUTHERN BUOY              56 50  150/ 10/ 12 1011.7F         1/ 3
WILMETTE HARBOR            61 54  190/  8/ 10   N/A           1/ 3
HARRISON CRIB              69     180/ 16/ 17   N/A
BURNHAM HARBOR             70     190/  9/ 14   N/A
CALUMET HARBOR             71     170/ 11/ 15 1011.8R
BURNS HARBOR               71     190/ 15/ 23 1013.2R
MICHIGAN CITY              72     170/ 17/ 20   N/A
MICHIGAN CITY 6N           66 58  200/ 10/ 12   N/A           1/ 2
ST. JOSEPH                 66 62  170/  8/ 10   N/A           1
$$

ILZ025>027-034>036-040-047-049-050-058-095>099-280600-
WEST-CENTRAL ILLINOIS

CITY           SKY/WX    TMP DP  RH WIND       PRES   REMARKS
QUINCY         CLOUDY    69  66  90 S12       29.78S
GALESBURG*     CLOUDY    69  67  93 S13G18    29.79S
MACOMB*        CLOUDY    69  67  92 S16       29.81S
JACKSONVILLE*  MOCLDY    70  67  90 SE9       29.82S
PITTSFIELD*    CLOUDY    69  67  95 S9        29.82S
$$

ILZ028>032-037-038-041>044-048-051>054-059>061-280600-
CENTRAL ILLINOIS

CITY           SKY/WX    TMP DP  RH WIND       PRES   REMARKS
PONTIAC        CLOUDY    71  67  88 S13       29.87F
BLOOMINGTON    CLOUDY    69  68  97 S13       29.88F
DECATUR        CLOUDY    70  65  84 S10       29.88S
PEORIA         PTCLDY    70  66  87 S13       29.82F
LACON*         CLOUDY    69  65  90 S10G17    29.82F
LINCOLN*       CLOUDY    70  67  91 S8        29.85F
SPRINGFIELD    CLOUDY    72  66  81 S16       29.83F
TAYLORVILLE    CLOUDY    68  66  93 SE9       29.85F
$$

ILZ033-039-045-046-055>057-062-063-280600-
EAST-CENTRAL ILLINOIS

CITY           SKY/WX    TMP DP  RH WIND       PRES   REMARKS
CHAMPAIGN      CLOUDY    68  66  93 SE10      29.90S
RANTOUL*       PTCLDY    69  67  92 SE6       29.91S
MATTOON        PTCLDY    68  65  90 SE7       29.89F
PARIS*         CLOUDY    69  68  97 SE3       29.92S
$$

ILZ079-100>102-280600-
SOUTHWEST ILLINOIS

CITY           SKY/WX    TMP DP  RH WIND       PRES   REMARKS
ALTON          CLOUDY    69  67  90 SE8       29.84F
BELLEVILLE     MOCLDY    71  71  99 E8        29.83F
CAHOKIA*       CLOUDY    72  67  84 SE8       29.83S
SPARTA*        CLOUDY    69  67  93 S7        29.88R
$$

ILZ064>066-069>071-074>076-080>082-084>086-088>090-092>094-280600-
SOUTH-CENTRAL ILLINOIS

CITY           SKY/WX    TMP DP  RH WIND       PRES   REMARKS
CARBONDALE     CLOUDY    69  66  90 S5        29.89R
CAIRO*         CLOUDY    72  68  88 S8        29.90R
EFFINGHAM*     CLOUDY    68  68 100 E6        29.91S
MARION         MOCLDY    72  68  88 S6        29.90R
MT. VERNON     CLOUDY    72  63  73 SE9G16    29.90R
CENTRALIA*     CLOUDY    72  67  87 SE10      29.87S
SALEM*         CLOUDY    69  67  90 SE5       29.88S
METROPOLIS*    CLOUDY    75  67  76 S3        29.92R
$$

ILZ067-068-072-073-078-083-087-091-280600-
SOUTHEAST ILLINOIS

CITY           SKY/WX    TMP DP  RH WIND       PRES   REMARKS
LAWRENCEVILLE  CLOUDY    75  64  68 SE10      29.92S
FLORA*         CLOUDY    70  67  89 SE7       29.90S
FAIRFIELD*     PTCLDY    71  65  81 SE6       29.89S
HARRISBURG*    CLOUDY    72  66  83 S7        29.91R
ROBINSON*      PTCLDY    69  64  83 SE6       29.92F
CARMI*         CLOUDY    71  66  85 SE6       29.91S
$$

ABBREVIATIONS USED IN REMARKS
   TC - TEMPERATURE IN CELSIUS
  WCI - WIND CHILL INDEX
   HX - HEAT INDEX
  VSB - VISIBILITY
$$





USA.gov is the U.S. government's official web portal to all federal, state and local government web resources and services.